Weather History for KBHK - September, 2012

Change the Weather History Date:

Saturday, September 1, 2012

  Actual Average Record
Temperature  
Mean Temperature 74 °F -  
Max Temperature 91 °F 90 °F 99 °F (2004)
Min Temperature 57 °F 62 °F 39 °F (2005)
Cooling Degree Days 9    
Growing Degree Days 24 (Base 50)    
Moisture  
Dew Point 47 °F    
Average Humidity 41    
Maximum Humidity 72    
Minimum Humidity 18    
Precipitation  
Precipitation 0.00 in - - ()
Sea Level Pressure  
Sea Level Pressure 29.75 in    
Wind  
Wind Speed 10 mph (SSW)    
Max Wind Speed 17 mph    
Max Gust Speed 24 mph    
Visibility 10 miles    
Events Thunderstorm    
Averages and records for this station are not official NWS values.
T = Trace of Precipitation, MM = Missing Value Source: NWS Daily Summary

Daily Weather History Graph

Daily Weather History Graph

Search for Another Location

Airport or City:

Trip Planner

Search our weather history database for the weather conditions in past years. The results will help you decide how hot, cold, wet, or windy it might be!

Date:

Astronomy

Sep. 01, 2012 Rise Set
Actual Time 6:17 AM MDT 7:34 PM MDT
Civil Twilight 5:46 AM MDT 8:05 PM MDT
Nautical Twilight 5:09 AM MDT 8:43 PM MDT
Astronomical Twilight 4:29 AM MDT 9:22 PM MDT
Moon 7:43 PM MDT (9/1) 7:35 AM MDT (9/1)
Length of Visible Light 14h 18m
Length of Day
13h 16m
Full, 98% of the Moon is Illuminated
Sep 1
Full
Sep 8
Last Quarter
Sep 15
New
Sep 22
First Quarter
Sep 29
Full

Hourly Weather History & Observations

Time (MDT) Temp. Dew Point Humidity Pressure Visibility Wind Dir Wind Speed Gust Speed Precip Events Conditions
12:51 AM 64.9 °F 54.0 °F 68% 29.83 in 10.0 mi East 10.4 mph - 0.00 in   Clear
1:51 AM 64.0 °F 51.1 °F 63% 29.81 in 10.0 mi ESE 12.7 mph - N/A   Clear
2:51 AM 62.1 °F 48.9 °F 62% 29.80 in 10.0 mi ESE 10.4 mph - N/A   Clear
3:51 AM 59.0 °F 48.0 °F 67% 29.78 in 10.0 mi ESE 8.1 mph - N/A   Clear
4:51 AM 57.9 °F 48.0 °F 70% 29.76 in 10.0 mi ESE 10.4 mph - N/A   Clear
5:51 AM 57.0 °F 48.0 °F 72% 29.76 in 10.0 mi ESE 9.2 mph - N/A   Clear
6:51 AM 59.0 °F 50.0 °F 72% 29.77 in 10.0 mi SE 9.2 mph - N/A   Clear
7:51 AM 64.9 °F 52.0 °F 63% 29.77 in 10.0 mi SE 10.4 mph - N/A   Clear
8:51 AM 78.1 °F 51.1 °F 39% 29.75 in 10.0 mi SSW 15.0 mph - N/A   Clear
10:51 AM 87.1 °F 48.0 °F 26% 29.73 in 10.0 mi WSW 9.2 mph - N/A   Clear
11:51 AM 89.1 °F 46.9 °F 23% 29.74 in 10.0 mi WSW 12.7 mph 24.2 mph N/A   Clear
12:51 PM 90.0 °F 46.9 °F 23% 29.73 in 10.0 mi Variable 6.9 mph 17.3 mph N/A   Clear
1:51 PM 91.0 °F 45.0 °F 20% 29.73 in 10.0 mi WSW 15.0 mph 18.4 mph N/A   Clear
2:51 PM 91.9 °F 44.1 °F 19% 29.71 in 10.0 mi WSW 12.7 mph 21.9 mph N/A   Clear
3:51 PM 91.0 °F 44.1 °F 20% 29.71 in 10.0 mi WSW 12.7 mph 17.3 mph N/A   Clear
4:51 PM 91.9 °F 43.0 °F 18% 29.71 in 10.0 mi WNW 17.3 mph 21.9 mph N/A   Clear
5:51 PM 90.0 °F 44.1 °F 20% 29.70 in 10.0 mi West 13.8 mph - N/A   Clear
6:51 PM 86.0 °F 44.1 °F 23% 29.72 in 10.0 mi NW 12.7 mph - N/A   Clear
7:51 PM 82.9 °F 44.1 °F 25% 29.73 in 10.0 mi NW 9.2 mph - N/A   Clear
8:51 PM 77.0 °F 45.0 °F 32% 29.75 in 10.0 mi North 5.8 mph - N/A   Mostly Cloudy
9:51 PM 73.0 °F 45.0 °F 37% 29.75 in 10.0 mi Calm Calm - N/A   Clear
10:51 PM 72.0 °F 46.9 °F 41% 29.74 in 10.0 mi Calm Calm - N/A   Mostly Cloudy
11:51 PM 70.0 °F 48.9 °F 47% 29.75 in 10.0 mi Calm Calm - N/A   Mostly Cloudy
11:56 PM 69.8 °F 48.2 °F 46% 29.84 in 10.0 mi Calm Calm - N/A Thunderstorm Scattered Clouds